Location: Slidell
(30.2789°N, 89.7378°W)
Time: 15:53:44
(UTC-05:00)

Daily predictions for brighter satellites

Satellite Brightness Start Highest point End
(mag) Time Altitude Azimuth Time Altitude Azimuth Time Altitude Azimuth
Nadezhda 4 Rocket 4.4 19:50:45 10° N 19:56:43 44° E 20:02:41 10° SSE
GPS 2-04 Rocket1 2.4 19:54:01 10° WNW 19:57:35 87° SSW 20:01:18 10° ESE
Hubble Space Telescope 2.7 19:55:30 10° WSW 19:58:34 20° SSW 20:01:38 10° SSE
Sakura Rocket 4.4 19:57:37 10° SSW 20:00:08 17° SSE 20:02:55 10° ESE
Cosmos 1707 Rocket 4.2 19:57:03 10° SSE 20:01:07 36° E 20:05:10 10° NNE
HJ-1C 3.5 19:59:13 10° SSE 20:02:35 56° ENE 20:05:59 10° N
USA 186 3.5 20:02:52 10° E 20:04:03 12° ENE 20:05:17 10° NE
Cosmos 2034 Rocket 4.3 19:59:44 10° S 20:05:54 75° W 20:12:05 10° N
ALOS 2.3 20:02:47 10° SSE 20:07:28 89° ENE 20:12:08 10° NNW
Helios 1B rocket 3.6 20:04:25 10° NE 20:07:41 23° E 20:10:55 10° SSE
CENTAUR R/B 4.4 20:03:28 10° WSW 20:08:46 33° NW 20:14:38 10° N
Cosmos 1242 Rocket 4.4 20:05:48 10° SSW 20:09:13 36° W 20:12:37 10° NNW
Resurs 1-3 3.8 20:15:01 10° SSE 20:19:14 50° ENE 20:23:29 10° N
Atlas Centaur 2 3.0 20:17:38 10° SW 20:24:02 52° SSE 20:31:32 11° E
Cosmos 1869 Rocket 3.7 20:20:34 10° N 20:24:58 54° E 20:29:19 10° SSE
Cosmos 1408 4.3 20:24:44 10° NE 20:27:04 16° ENE 20:27:28 16° E
SL-8 R/B 3.7 20:25:43 10° NW 20:30:33 80° NE 20:33:57 19° SE
Cosmos 2242 Rocket 4.1 20:28:27 10° SSE 20:32:39 39° E 20:36:51 10° NNE
Cosmos 1455 2.8 20:30:18 10° SSW 20:34:02 59° W 20:37:48 10° N
Helios 1A 3.5 20:36:34 21° SE 20:38:52 39° ENE 20:42:50 10° N
Cosmos 2279 Rocket 4.4 20:34:18 10° SSE 20:40:04 41° E 20:45:50 10° NNE
Meteor 2-20 4.5 20:40:00 10° N 20:46:03 62° E 20:51:28 13° SSE
DELTA 2 R/B (1) 3.7 20:40:44 10° WNW 20:46:21 71° NNE 20:49:34 26° ESE
Cosmos 1869 3.2 20:43:04 10° S 20:46:59 86° W 20:50:56 10° N
CZ-3B DEB 0.9 20:44:45 10° NW 20:48:10 47° WSW 20:48:45 36° S
Spot 2 Rocket 3.7 20:43:11 10° S 20:48:16 71° WSW 20:53:21 10° NNW
Resurs 01 Rocket 2.3 20:45:58 10° S 20:50:18 55° W 20:54:41 10° NNW
OAO 3 Rocket 3.9 20:48:21 10° W 20:53:07 50° N 20:56:38 18° ENE
CZ-4B DEB 3.5 20:54:21 34° NE 20:54:21 34° NE 20:56:47 10° N
Cosmos 1900 4.4 20:49:29 10° NNW 20:54:37 84° WSW 20:57:51 23° SSE
YAOGAN 6 4.4 20:56:56 18° NE 20:56:56 18° NE 20:58:42 10° NNE
Cosmos 1892 4.4 20:54:15 10° NNW 20:57:40 32° W 21:01:05 10° SSW
FALCON 9 R/B 1.6 20:58:21 10° WNW 21:00:36 30° N 21:00:47 29° N
Meteor 1-29 3.1 21:00:41 10° N 21:04:09 75° WNW 21:06:41 17° SSW
Meteor 2-10 Rocket 4.3 21:05:37 35° ESE 21:06:40 38° E 21:11:59 10° NNE
Cosmos 2322 Rocket 2.5 21:01:22 10° SSW 21:06:56 68° WNW 21:12:31 10° NNE
Cosmos 2263 Rocket 3.2 21:03:10 10° N 21:07:49 27° ENE 21:08:25 26° ENE
Envisat 2.9 21:05:47 31° SSE 21:08:11 73° ENE 21:13:15 10° N
Cosmos 1933 3.2 21:11:30 60° E 21:11:35 61° E 21:15:34 10° NNE
Cosmos 220 Rocket 4.0 21:08:26 10° N 21:12:51 63° ENE 21:13:27 56° ESE
Cosmos 1315 Rocket 4.1 21:10:29 10° NNW 21:14:17 40° W 21:17:07 16° SSW
Cosmos 2360 Rocket 2.3 21:15:49 40° SSE 21:17:20 50° ESE 21:22:46 10° NNE
OTV 4 2.6 21:18:44 10° W 21:20:12 22° WSW 21:20:12 22° WSW
USA 234 3.5 21:22:54 39° E 21:25:09 56° NE 21:31:31 10° NNW
Cosmos 2322 3.8 21:25:27 50° E 21:25:27 50° E 21:30:41 10° NNE
Cosmos 1825 2.3 21:23:28 10° NNW 21:27:15 68° W 21:27:16 68° W
CZ-3 Stage 3 4.0 21:05:39 10° WNW 21:28:02 36° SW 21:31:42 23° S
SEDSat Delta rocket 3.6 21:23:22 10° W 21:28:49 85° N 21:30:34 48° ENE
Cosmos 2026 Rocket 4.1 21:24:44 10° N 21:30:55 73° W 21:34:22 27° S
SL-16 R/B 3.6 21:29:31 10° SW 21:34:45 38° WNW 21:40:01 10° N
ATLAS CENTAUR R/B 4.3 21:33:53 10° WNW 21:37:34 28° SW 21:42:08 18° S
Cosmos 1862 3.9 21:36:59 10° N 21:40:18 56° NW 21:40:18 56° NW
ERS-1 Rocket 2.9 21:42:09 70° NE 21:42:09 70° NE 21:46:52 10° N
Cosmos 1939 Rocket 3.8 21:44:20 44° WSW 21:44:25 44° W 21:48:18 10° NNW
Lacrosse 4 Rocket 2.0 21:41:36 10° NNW 21:45:08 58° NNW 21:45:08 58° NNW
Skynet4D Del rocket 4.3 21:38:55 10° W 21:47:01 70° S 21:48:17 60° SE
ERBS 4.4 21:44:19 10° NW 21:46:04 28° NW 21:46:04 28° NW
ATLAS 5 CENTAUR R/B 3.4 21:42:23 10° N 21:47:45 32° NE 21:47:45 32° NE
Cosmos 1733 Rocket 3.7 21:47:09 10° NNW 21:51:22 52° W 21:51:22 52° W
ARGOS 4.0 21:52:58 36° NE 21:52:58 36° NE 21:56:41 10° N
Milstar 3 2.7 21:45:20 10° W 21:52:37 65° SSW 21:53:09 63° SSE
ATLAS CENTAUR Rocket 4.5 20:38:59 10° WNW 21:54:05 42° SW 21:58:23 30° S
SeaSat 1 3.8 21:57:02 28° NNE 21:57:02 28° NNE 22:00:01 10° N
Meteor 1-26 Rocket 4.2 21:58:32 80° WSW 21:58:40 80° W 22:04:25 10° N
Terra 4.4 22:10:04 10° NNE 22:10:04 10° NNE 22:10:09 10° NNE
USA 229 DEB 3.7 22:01:21 10° SSW 22:08:08 77° WNW 22:15:03 10° NNE
USA 229 3.7 22:01:25 10° SSW 22:08:12 78° WNW 22:15:08 10° NNE
Atlas Centaur 2 2.8 22:06:08 10° W 22:13:38 86° S 22:14:12 79° ESE
Cosmos 2266 Rocket 4.1 22:12:43 10° N 22:18:12 69° N 22:18:12 69° N
MOS 1-B Rocket 4.4 22:22:54 56° N 22:22:54 56° N 22:27:19 10° N
H-2A R/B 3.8 22:33:27 25° N 22:33:27 25° N 22:35:30 10° N
COSMOS 2428 4.4 22:52:07 27° N 22:52:07 27° N 22:54:43 10° N
H-2A R/B 3.6 15:02:32 10° SW 22:51:23 81° S 22:51:40 80° SSE
Cosmos 2263 Rocket 3.9 22:46:48 10° NW 22:50:09 27° WNW 22:50:09 27° WNW
ATLAS 5 CENTAUR R/B 4.4 23:26:49 10° NW 23:29:19 23° WNW 23:29:19 23° WNW
